TimeCDT,TemperatureF,Dew PointF,Humidity,Sea Level PressureIn,VisibilityMPH,Wind Direction,Wind SpeedMPH,Gust SpeedMPH,PrecipitationIn,Events,Conditions,WindDirDegrees,DateUTC
12:53 AM,66.0,64.0,93,29.91,7.0,SW,9.2,-,N/A,,Overcast,220,2013-10-16 05:53:00
1:39 AM,60.8,59.0,94,29.93,4.0,NW,16.1,24.2,0.01,Rain,Light Rain,320,2013-10-16 06:39:00
1:42 AM,60.8,59.0,94,29.93,6.0,NW,13.8,-,0.01,Rain,Light Rain,320,2013-10-16 06:42:00
1:53 AM,61.0,57.0,87,29.93,10.0,NW,15.0,-,0.01,,Overcast,310,2013-10-16 06:53:00
2:53 AM,59.0,54.0,83,29.94,10.0,NW,9.2,-,N/A,,Overcast,310,2013-10-16 07:53:00
3:53 AM,57.9,48.9,72,29.95,10.0,NW,12.7,-,N/A,,Overcast,310,2013-10-16 08:53:00
4:10 AM,57.2,50.0,77,29.96,10.0,NW,10.4,-,N/A,,Overcast,310,2013-10-16 09:10:00
4:53 AM,57.0,50.0,77,29.96,10.0,NW,8.1,-,N/A,,Overcast,310,2013-10-16 09:53:00
5:53 AM,55.9,48.9,77,29.98,10.0,NNW,9.2,-,N/A,,Overcast,330,2013-10-16 10:53:00
6:53 AM,54.0,42.1,64,29.99,10.0,NW,10.4,-,N/A,,Mostly Cloudy,310,2013-10-16 11:53:00
7:53 AM,53.1,44.1,71,30.01,10.0,NW,8.1,-,N/A,,Overcast,320,2013-10-16 12:53:00
8:53 AM,54.0,43.0,66,30.01,10.0,WNW,10.4,-,N/A,,Overcast,300,2013-10-16 13:53:00
9:53 AM,53.1,43.0,69,30.02,10.0,West,6.9,-,N/A,,Overcast,280,2013-10-16 14:53:00
10:53 AM,54.0,43.0,66,30.01,10.0,West,6.9,-,N/A,,Overcast,280,2013-10-16 15:53:00
11:53 AM,55.9,42.1,60,30.01,10.0,WNW,8.1,-,N/A,,Overcast,300,2013-10-16 16:53:00
12:53 PM,57.9,42.1,56,30.00,10.0,West,11.5,-,N/A,,Mostly Cloudy,260,2013-10-16 17:53:00
1:53 PM,60.1,43.0,53,29.99,10.0,WNW,12.7,16.1,N/A,,Clear,290,2013-10-16 18:53:00
2:53 PM,63.0,43.0,48,29.97,10.0,WNW,9.2,-,N/A,,Clear,300,2013-10-16 19:53:00
3:53 PM,64.0,42.1,45,29.96,10.0,WNW,8.1,-,N/A,,Clear,300,2013-10-16 20:53:00
4:53 PM,63.0,42.1,46,29.95,9.0,WNW,8.1,-,N/A,,Clear,290,2013-10-16 21:53:00
5:53 PM,59.0,42.1,53,29.96,10.0,NW,9.2,-,N/A,,Clear,310,2013-10-16 22:53:00
6:53 PM,54.0,43.0,66,29.98,10.0,NNW,6.9,-,N/A,,Clear,340,2013-10-16 23:53:00
7:53 PM,51.1,44.1,77,29.99,10.0,North,5.8,-,N/A,,Clear,350,2013-10-17 00:53:00
8:53 PM,50.0,43.0,77,30.00,10.0,North,4.6,-,N/A,,Clear,360,2013-10-17 01:53:00
9:53 PM,48.9,43.0,80,30.01,9.0,NNW,4.6,-,N/A,,Clear,340,2013-10-17 02:53:00
10:53 PM,46.9,43.0,86,30.01,8.0,North,3.5,-,N/A,,Clear,350,2013-10-17 03:53:00
11:53 PM,46.0,42.1,86,30.00,8.0,Calm,Calm,-,N/A,,Clear,0,2013-10-17 04:53:00